EW0259 Weather Reports


time (UTC)temp
F
wind
direction
speed
knots
gust
knots
rain 1hr
in
rain 24hr
in
rain mn
in
humidity
%
barometer
mb
20260505122229 55 124 0.9 1.7 0.00 0.00 0.00 85 1015.4
20260505121732 54 139 0.0 2.6 0.00 0.00 0.00 85 1015.4
20260505121235 54 244 0.0 2.6 0.00 0.00 0.00 85 1015.5
20260505120803 54 134 0.9 1.7 0.00 0.00 0.00 85 1015.4
20260505120239 54 85 0.0 0.9 0.00 0.00 0.00 85 1015.4
20260505115726 54 85 0.0 1.7 0.00 0.00 0.00 85 1015.4
20260505115238 54 85 0.9 1.7 0.00 0.00 0.00 85 1015.3
20260505114726 54 61 0.0 2.6 0.00 0.00 0.00 85 1015.3
20260505114234 54 71 0.9 2.6 0.00 0.00 0.00 85 1015.4
20260505113802 54 219 0.0 2.6 0.00 0.00 0.00 85 1015.3
20260505113730 54 219 0.0 2.6 0.00 0.00 0.00 85 1015.3
20260505113238 54 87 0.0 1.7 0.00 0.00 0.00 85 1015.3
20260505112805 54 104 0.0 1.7 0.00 0.00 0.00 85 1015.3
20260505112733 54 104 0.0 1.7 0.00 0.00 0.00 85 1015.3
20260505112221 54 146 0.0 1.7 0.00 0.00 0.00 85 1015.3
20260505111729 54 57 0.9 2.6 0.00 0.00 0.00 85 1015.3
20260505111257 54 190 0.9 2.6 0.00 0.00 0.00 85 1015.3
20260505110812 54 109 0.9 1.7 0.00 0.00 0.00 85 1015.2
20260505110740 54 109 0.9 1.7 0.00 0.00 0.00 85 1015.2
20260505110228 54 177 0.0 2.6 0.00 0.00 0.00 85 1015.2
20260505102222 54 59 0.0 1.7 0.00 0.00 0.00 86 1014.9
20260505101810 54 171 0.0 1.7 0.00 0.00 0.00 87 1014.8
20260505101305 54 171 0.0 1.7 0.00 0.00 0.00 87 1014.8
20260505100722 54 219 0.0 1.7 0.00 0.00 0.00 87 1014.7
20260505100230 54 174 0.9 2.6 0.00 0.00 0.00 87 1014.8
20260505095757 54 38 0.0 1.7 0.00 0.00 0.00 87 1014.8
20260505095254 54 52 0.0 2.6 0.00 0.00 0.00 87 1014.8
20260505094810 53 16 0.0 2.6 0.00 0.00 0.00 88 1014.7
20260505094738 53 16 0.0 2.6 0.00 0.00 0.00 88 1014.7
20260505094306 53 53 0.0 2.6 0.00 0.00 0.00 88 1014.8
20260505093723 53 71 0.9 2.6 0.00 0.00 0.00 89 1014.7
20260505093311 53 88 0.0 1.7 0.00 0.00 0.00 89 1014.6
20260505092726 52 11 0.0 1.7 0.00 0.00 0.00 89 1014.7
20260505092234 52 24 0.0 0.9 0.00 0.00 0.00 89 1014.6
20260505091801 52 24 0.0 0.0 0.00 0.00 0.00 89 1014.6
20260505091237 52 24 0.0 0.9 0.00 0.00 0.00 89 1014.6
20260505090805 52 24 0.0 0.9 0.00 0.00 0.00 90 1014.5
20260505090301 52 20 0.0 0.0 0.00 0.00 0.00 90 1014.5
20260505085736 52 20 0.0 0.0 0.00 0.00 0.00 89 1014.4
20260505085305 52 20 0.0 0.0 0.00 0.00 0.00 89 1014.4
20260505084725 52 20 0.0 0.0 0.00 0.00 0.00 89 1014.5
20260505084253 52 20 0.0 0.0 0.00 0.00 0.00 89 1014.4
20260505084221 52 20 0.0 0.0 0.00 0.00 0.00 89 1014.4
20260505083729 52 20 0.0 0.0 0.00 0.00 0.00 88 1014.5
20260505083237 52 20 0.0 0.0 0.00 0.00 0.00 88 1014.4
20260505082804 53 20 0.0 0.0 0.00 0.00 0.00 88 1014.4
20260505082732 53 20 0.0 0.0 0.00 0.00 0.00 88 1014.4
20260505082259 53 20 0.0 0.0 0.00 0.00 0.00 88 1014.4
20260505081736 53 20 0.0 0.0 0.00 0.00 0.00 88 1014.4
20260505081224 53 20 0.0 0.9 0.00 0.00 0.00 88 1014.3
20260505080811 53 20 0.0 1.7 0.00 0.00 0.00 88 1014.3
20260505080228 53 20 0.0 1.7 0.00 0.00 0.00 88 1014.2
20260505075735 53 20 0.0 0.0 0.00 0.00 0.00 87 1014.2
20260505075304 53 20 0.0 0.0 0.00 0.00 0.00 87 1014.2
20260505075231 53 20 0.0 0.0 0.00 0.00 0.00 87 1014.2
20260505074738 53 20 0.0 1.7 0.00 0.00 0.00 87 1014.1
20260505074226 54 20 0.0 1.7 0.00 0.00 0.00 87 1014.1
20260505073734 54 20 0.0 1.7 0.00 0.00 0.00 86 1014.0
20260505073226 54 20 0.0 0.9 0.00 0.00 0.00 86 1013.9
20260505072733 54 20 0.0 0.9 0.00 0.00 0.00 86 1013.8
20260505072301 54 261 0.0 0.0 0.00 0.00 0.00 85 1013.8
20260505071738 54 261 0.0 0.0 0.00 0.00 0.00 85 1013.8
20260505071226 54 261 0.0 0.0 0.00 0.00 0.00 85 1013.7
20260505070734 54 261 0.0 0.0 0.00 0.00 0.00 85 1013.7
20260505070222 55 261 0.0 0.0 0.00 0.00 0.00 84 1013.6
20260505065729 55 261 0.0 0.0 0.00 0.00 0.00 84 1013.5
20260505065237 55 261 0.0 0.0 0.00 0.00 0.00 83 1013.5
20260505064725 55 261 0.0 0.0 0.00 0.00 0.00 83 1013.5
20260505064253 55 261 0.0 1.7 0.00 0.00 0.00 83 1013.5
20260505063733 55 261 0.0 1.7 0.00 0.00 0.00 83 1013.4
20260505063241 56 288 0.0 1.7 0.00 0.00 0.00 82 1013.3
20260505062808 56 304 0.0 1.7 0.00 0.00 0.00 82 1013.4
20260505062224 56 304 0.0 1.7 0.00 0.00 0.00 81 1013.3
20260505061731 56 311 0.0 1.7 0.00 0.00 0.00 81 1013.3
20260505061259 56 248 0.0 1.7 0.00 0.00 0.00 81 1013.1
20260505060755 56 247 0.0 1.7 0.00 0.00 0.00 80 1013.1
20260505060312 57 247 0.0 2.6 0.00 0.00 0.00 80 1013.1
20260505060240 57 247 0.0 2.6 0.00 0.00 0.00 80 1013.1
20260505055727 57 215 0.0 2.6 0.00 0.00 0.00 79 1013.1
20260505055235 57 142 0.0 2.6 0.00 0.00 0.00 79 1013.1
20260505054803 57 127 0.9 3.5 0.00 0.00 0.00 79 1013.1
20260505054731 57 127 0.9 3.5 0.00 0.00 0.00 79 1013.1
20260505054239 57 180 0.9 2.6 0.00 0.00 0.00 78 1012.9
20260505053727 58 88 0.0 1.7 0.00 0.00 0.00 78 1012.9
20260505053235 58 195 0.0 3.5 0.00 0.00 0.00 77 1012.9
20260505052722 58 227 0.9 3.5 0.00 0.00 0.00 76 1012.9
20260505052234 59 38 0.9 6.1 0.00 0.00 0.00 76 1013.0
20260505051802 59 282 1.7 6.1 0.00 0.00 0.00 76 1013.0
20260505051258 59 13 0.9 2.6 0.00 0.00 0.00 75 1013.0
20260505050735 60 255 0.0 1.7 0.00 0.00 0.00 75 1012.9
20260505050223 60 193 0.0 1.7 0.00 0.00 0.00 74 1012.8
20260505041725 63 125 0.9 1.7 0.00 0.00 0.00 69 1012.1
20260505041233 63 341 0.0 1.7 0.00 0.00 0.00 68 1012.0
20260505040721 63 281 0.9 5.2 0.00 0.00 0.00 68 1011.9
20260505040309 64 273 0.9 5.2 0.00 0.00 0.00 67 1011.9
20260505035725 64 67 0.9 2.6 0.00 0.00 0.00 67 1011.8
20260505035233 64 143 0.0 2.6 0.00 0.00 0.00 65 1011.7
20260505034721 65 338 0.0 3.5 0.00 0.00 0.00 65 1011.7
20260505034229 65 283 1.7 3.5 0.00 0.00 0.00 64 1011.7
20260505033737 66 94 0.0 2.6 0.00 0.00 0.00 64 1011.7
20260505033304 66 25 0.0 1.7 0.00 0.00 0.00 63 1011.4
20260505032740 66 210 0.9 2.6 0.00 0.00 0.00 62 1011.4
20260505032232 67 311 0.9 2.6 0.00 0.00 0.00 62 1011.5
20260505031740 67 202 0.0 6.1 0.00 0.00 0.00 61 1011.5
20260505031228 68 96 1.7 3.5 0.00 0.00 0.00 60 1011.3
20260505030736 68 286 0.0 3.5 0.00 0.00 0.00 60 1011.1
20260505030304 69 228 0.0 4.3 0.00 0.00 0.00 58 1011.2
20260505025739 69 228 0.9 4.3 0.00 0.00 0.00 57 1011.1
20260505025227 70 34 0.0 1.7 0.00 0.00 0.00 56 1011.1
20260505024735 70 163 0.0 3.5 0.00 0.00 0.00 55 1011.0
20260505024223 71 149 0.9 2.6 0.00 0.00 0.00 55 1011.0
20260505023731 71 272 0.9 2.6 0.00 0.00 0.00 53 1010.9
20260505023222 72 294 0.9 2.6 0.00 0.00 0.00 52 1010.8
20260505022729 73 260 0.9 2.6 0.00 0.00 0.00 52 1010.9
20260505022236 73 285 0.9 3.5 0.00 0.00 0.00 51 1010.9
20260505021724 74 188 0.9 3.5 0.00 0.00 0.00 51 1010.9
20260505021231 75 190 0.9 4.3 0.00 0.00 0.00 51 1010.9
20260505020739 75 252 0.9 4.3 0.00 0.00 0.00 51 1010.8
20260505020227 75 153 1.7 4.3 0.00 0.00 0.00 50 1010.8
20260505015753 76 185 0.9 4.3 0.00 0.00 0.00 49 1010.8
20260505015230 77 171 1.7 3.5 0.00 0.00 0.00 48 1010.8
20260505014738 77 277 0.9 4.3 0.00 0.00 0.00 48 1010.9
20260505014307 77 267 2.6 5.2 0.00 0.00 0.00 46 1010.9
20260505014234 77 267 2.6 5.2 0.00 0.00 0.00 46 1010.9
20260505013722 78 238 0.9 2.6 0.00 0.00 0.00 47 1010.9
20260505013310 78 143 0.9 1.7 0.00 0.00 0.00 46 1010.9
20260505012804 78 243 0.0 1.7 0.00 0.00 0.00 46 1010.9
20260505012225 78 303 0.9 3.5 0.00 0.00 0.00 45 1011.0
20260505011733 78 252 0.9 3.5 0.00 0.00 0.00 44 1011.1
20260505011301 79 313 0.9 2.6 0.00 0.00 0.00 43 1011.1
20260505011229 79 313 0.9 2.6 0.00 0.00 0.00 43 1011.1
20260505010737 80 49 0.9 2.6 0.00 0.00 0.00 43 1011.1
20260505010225 80 53 0.0 3.5 0.00 0.00 0.00 42 1011.2
20260505005732 80 355 0.9 3.5 0.00 0.00 0.00 41 1011.2
20260505005300 80 61 0.0 1.7 0.00 0.00 0.00 41 1011.3
20260505005228 80 61 0.0 1.7 0.00 0.00 0.00 41 1011.3
20260505004756 80 346 0.0 3.5 0.00 0.00 0.00 40 1011.1
20260505004724 80 346 0.0 3.5 0.00 0.00 0.00 40 1011.1
20260505004232 79 289 0.9 4.3 0.00 0.00 0.00 42 1011.2
20260505003740 79 193 0.9 4.3 0.00 0.00 0.00 39 1011.1
20260505003308 79 5 1.7 4.3 0.00 0.00 0.00 38 1011.0
20260505002723 79 85 1.7 3.5 0.00 0.00 0.00 39 1011.1
20260505002231 79 328 0.9 5.2 0.00 0.00 0.00 38 1011.2
20260505001731 79 313 2.6 5.2 0.00 0.00 0.00 37 1011.2
20260505001223 79 207 1.7 5.2 0.00 0.00 0.00 35 1011.1
20260505000731 79 277 1.7 3.5 0.00 0.00 0.00 34 1011.2
20260505000239 80 96 0.9 3.5 0.00 0.00 0.00 36 1011.2
20260504235726 80 155 1.7 4.3 0.00 0.00 0.00 34 1011.2
20260504235234 80 53 2.6 4.3 0.00 0.00 0.00 32 1011.2
20260504234722 80 42 1.7 4.3 0.00 0.00 0.00 31 1011.2
20260504234230 80 312 0.9 3.5 0.00 0.00 0.00 32 1011.4
20260504233738 79 86 1.7 7.8 0.00 0.00 0.00 32 1011.3
20260504233226 80 277 1.7 5.2 0.00 0.00 0.00 30 1011.3
20260504232733 80 157 0.9 7.0 0.00 0.00 0.00 33 1011.1
20260504232225 79 323 1.7 7.0 0.00 0.00 0.00 33 1011.2
20260504231733 80 297 1.7 4.3 0.00 0.00 0.00 34 1011.2
20260504231221 79 215 1.7 4.3 0.00 0.00 0.00 32 1011.4
20260504230729 79 145 0.9 6.1 0.00 0.00 0.00 30 1011.6
20260504230237 79 254 1.7 6.1 0.00 0.00 0.00 31 1011.8
20260504225724 79 165 2.6 6.1 0.00 0.00 0.00 31 1011.6
20260504225232 79 360 2.6 6.1 0.00 0.00 0.00 32 1011.7
20260504224740 79 298 0.9 6.1 0.00 0.00 0.00 33 1011.7
20260504224228 79 297 2.6 4.3 0.00 0.00 0.00 32 1011.8
20260504223740 79 237 1.7 5.2 0.00 0.00 0.00 32 1012.0
20260504223307 80 152 0.9 2.6 0.00 0.00 0.00 34 1011.9
20260504222723 79 262 0.9 7.0 0.00 0.00 0.00 33 1011.9
20260504222231 79 140 1.7 7.0 0.00 0.00 0.00 32 1012.0
20260504221739 79 219 1.7 4.3 0.00 0.00 0.00 34 1012.0
20260504221307 78 20 1.7 4.3 0.00 0.00 0.00 33 1012.1
20260504220804 78 271 1.7 3.5 0.00 0.00 0.00 34 1012.1
20260504220259 78 261 2.6 4.3 0.00 0.00 0.00 34 1012.1
20260504215735 78 284 0.9 4.3 0.00 0.00 0.00 35 1012.1
20260504215223 77 346 1.7 8.7 0.00 0.00 0.00 37 1012.2
20260504214731 77 311 4.3 8.7 0.00 0.00 0.00 35 1012.2
20260504214239 78 355 1.7 6.1 0.00 0.00 0.00 37 1012.3
20260504213727 77 184 0.9 6.1 0.00 0.00 0.00 38 1012.3
20260504213233 77 330 1.7 7.0 0.00 0.00 0.00 39 1012.3
20260504212724 76 334 2.6 7.0 0.00 0.00 0.00 39 1012.4
20260504212232 76 311 1.7 8.7 0.00 0.00 0.00 39 1012.5
20260504211739 75 270 5.2 8.7 0.00 0.00 0.00 38 1012.5
20260504211227 75 284 2.6 7.0 0.00 0.00 0.00 39 1012.5
20260504210755 75 270 1.7 8.7 0.00 0.00 0.00 38 1012.5
20260504210723 75 270 1.7 8.7 0.00 0.00 0.00 38 1012.5
20260504210311 75 337 2.6 6.1 0.00 0.00 0.00 41 1012.5
20260504210239 75 337 2.6 6.1 0.00 0.00 0.00 41 1012.5
20260504205726 75 263 1.7 7.0 0.00 0.00 0.00 41 1012.5
20260504205234 76 239 2.6 7.0 0.00 0.00 0.00 41 1012.5
20260504204722 75 22 0.9 8.7 0.00 0.00 0.00 45 1012.5
20260504204230 75 243 3.5 8.7 0.00 0.00 0.00 42 1012.5
20260504203737 75 303 0.9 4.3 0.00 0.00 0.00 44 1012.5
20260504203305 75 144 0.9 6.1 0.00 0.00 0.00 42 1012.5
20260504203233 75 144 0.9 6.1 0.00 0.00 0.00 42 1012.5
20260504202724 74 277 2.6 6.1 0.00 0.00 0.00 41 1012.5
20260504202232 74 323 3.5 6.1 0.00 0.00 0.00 43 1012.4
20260504201740 74 104 0.9 7.8 0.00 0.00 0.00 44 1012.4
20260504201228 74 265 2.6 7.8 0.00 0.00 0.00 46 1012.4
20260504200756 73 329 5.2 7.8 0.00 0.00 0.00 45 1012.4
20260504200313 73 311 2.6 7.8 0.00 0.00 0.00 45 1012.5
20260504200241 73 311 2.6 7.8 0.00 0.00 0.00 45 1012.5
20260504195728 74 281 3.5 7.8 0.00 0.00 0.00 44 1012.5
20260504195236 75 259 2.6 7.0 0.00 0.00 0.00 44 1012.8
20260504194724 75 146 1.7 5.2 0.00 0.00 0.00 45 1012.8
20260504194232 74 250 0.9 5.2 0.00 0.00 0.00 44 1012.8
20260504193800 74 302 2.6 6.1 0.00 0.00 0.00 44 1012.6
20260504193237 74 300 2.6 6.1 0.00 0.00 0.00 44 1012.6
20260504192724 74 298 1.7 6.1 0.00 0.00 0.00 45 1012.7
20260504192236 73 202 1.7 5.2 0.00 0.00 0.00 45 1012.8
20260504191724 73 284 1.7 7.8 0.00 0.00 0.00 48 1012.9
20260504191232 73 263 3.5 7.8 0.00 0.00 0.00 47 1012.7
20260504190800 74 271 0.9 7.8 0.00 0.00 0.00 48 1012.7
20260504190236 74 339 0.9 6.1 0.00 0.00 0.00 48 1012.7
20260504185723 73 338 1.7 6.1 0.00 0.00 0.00 50 1012.8
20260504185231 72 285 1.7 7.0 0.00 0.00 0.00 51 1012.8
20260504184739 73 314 2.6 7.8 0.00 0.00 0.00 50 1012.9
20260504184227 73 355 0.9 4.3 0.00 0.00 0.00 48 1013.0
20260504183735 73 295 1.7 4.3 0.00 0.00 0.00 49 1012.8
20260504183227 73 213 0.9 3.5 0.00 0.00 0.00 47 1012.9
20260504182734 74 240 1.7 3.5 0.00 0.00 0.00 47 1012.8
20260504182222 73 53 0.9 3.5 0.00 0.00 0.00 48 1012.9
20260504181730 73 277 1.7 3.5 0.00 0.00 0.00 49 1012.8
20260504181258 72 285 1.7 3.5 0.00 0.00 0.00 49 1012.8
20260504180734 72 345 0.9 3.5 0.00 0.00 0.00 50 1012.8
20260504180301 72 314 0.9 3.5 0.00 0.00 0.00 51 1012.8
20260504175737 71 333 0.9 7.0 0.00 0.00 0.00 54 1012.7
20260504175225 71 263 4.3 7.0 0.00 0.00 0.00 50 1012.6
20260504174733 71 267 1.7 5.2 0.00 0.00 0.00 50 1012.7
20260504174240 71 251 2.6 5.2 0.00 0.00 0.00 50 1012.6
20260504173728 72 161 1.7 3.5 0.00 0.00 0.00 50 1012.5
20260504173256 71 251 0.9 2.6 0.00 0.00 0.00 51 1012.7
20260504172735 71 267 0.9 3.5 0.00 0.00 0.00 50 1012.6
20260504172223 71 27 1.7 3.5 0.00 0.00 0.00 50 1012.7
20260504171810 70 131 0.0 6.1 0.00 0.00 0.00 53 1012.6
20260504171227 70 277 2.6 6.1 0.00 0.00 0.00 52 1012.6
20260504170735 70 273 0.9 3.5 0.00 0.00 0.00 55 1012.6
20260504170223 69 299 0.9 2.6 0.00 0.00 0.00 55 1012.8
20260504160306 67 34 0.9 1.7 0.00 0.00 0.00 53 1012.2
20260504160235 67 34 0.9 1.7 0.00 0.00 0.00 53 1012.2
20260504150755 60 82 0.0 0.0 0.00 0.00 0.00 73 1011.8
20260504150232 59 82 0.0 1.7 0.00 0.00 0.00 75 1011.8
20260504141259 53 105 0.0 0.0 0.00 0.00 0.00 86 1011.4
20260504141227 53 105 0.0 0.0 0.00 0.00 0.00 86 1011.4
20260504140735 52 105 0.0 0.0 0.00 0.00 0.00 87 1011.4
20260504140222 51 105 0.0 0.0 0.00 0.00 0.00 88 1011.3
20260504130739 49 105 0.0 0.0 0.00 0.00 0.00 92 1011.0
20260504130307 49 105 0.0 0.0 0.00 0.00 0.00 92 1010.9